EHI
32 33 33 33 31 28 27 27 28 31 31 29 30 32 32 30 27 25 22 19 17 18 18 16 14 12 12 14 15 14 11 9 5 2 4 8 13 14 13 14 15 14 12
34 35 34 32 31 29 29 29 28 30 30 29 30 32 31 28 25 22 19 16 15 16 17 16 13 11 11 12 13 12 11 9 5 2 3 8 13 14 13 14 14 12 11
33 33 32 29 29 29 30 30 29 28 28 28 30 31 29 25 23 19 16 14 13 13 14 12 9 8 8 10 11 12 11 9 6 3 4 9 13 15 15 13 12 12 11
30 30 29 29 28 29 29 29 28 26 25 28 30 30 28 25 21 17 14 13 12 10 8 6 5 4 6 8 10 12 12 10 8 7 7 9 13 17 18 14 12 11 11
29 29 31 31 31 30 30 28 26 24 23 25 27 26 24 21 17 14 12 11 10 7 4 3 3 3 4 5 6 8 10 11 11 10 8 8 12 17 19 16 13 12 11
29 30 32 32 32 30 27 25 25 24 22 21 21 20 18 14 10 8 7 7 6 4 3 3 3 3 3 4 4 4 5 7 9 10 8 7 10 14 15 13 11 11 11
28 29 29 28 27 25 21 20 20 19 18 18 17 16 14 10 5 3 2 3 3 2 3 4 4 4 4 5 5 5 4 4 6 7 7 7 8 10 11 9 8 9 10
25 25 25 23 21 19 16 14 13 13 13 15 16 15 14 10 5 1 0 1 2 4 5 5 6 5 3 4 6 7 7 5 5 5 5 5 5 6 6 6 6 7 9
20 20 20 18 17 15 13 10 9 9 10 12 14 15 14 10 5 2 1 2 5 7 7 6 5 4 2 3 5 7 7 6 5 4 4 3 3 2 2 4 6 7 7
15 16 15 13 12 10 9 7 6 7 8 9 10 12 13 11 6 2 2 4 7 8 8 6 4 2 1 1 4 5 5 5 5 4 4 4 4 4 4 4 7 9 8
11 11 10 7 5 5 5 5 5 7 8 7 8 9 11 8 4 1 1 4 5 6 7 7 5 2 0 0 2 3 3 3 4 5 6 7 8 10 9 8 9 11 11
10 8 6 4 2 2 4 6 6 7 7 6 6 7 8 5 2 0 0 1 2 3 4 5 4 1 0 0 0 1 1 2 3 4 5 7 10 11 11 10 9 11 12
10 8 6 3 2 3 4 4 5 5 5 4 4 5 5 4 3 1 0 0 0 1 1 2 1 0 0 0 0 0 1 2 3 4 5 7 9 10 9 8 8 9 10
8 8 6 5 4 3 3 2 2 3 3 3 3 3 4 5 4 3 1 1 0 0 0 0 0 0 0 0 1 1 3 4 4 5 6 7 8 8 7 6 6 7 7
5 6 5 5 5 4 3 2 1 1 2 2 2 2 3 3 3 2 2 1 0 0 0 0 1 2 1 1 2 4 5 5 5 6 7 7 7 7 6 5 5 5 4
4 4 5 6 6 5 5 3 1 0 1 1 1 1 1 1 1 1 1 1 0 0 0 0 1 3 3 3 3 5 6 5 5 6 6 6 6 6 5 4 4 4 4
3 3 4 5 5 6 6 5 3 1 0 0 0 0 0 0 0 0 0 0 0 0 0 0 0 1 2 2 3 3 4 4 5 6 6 6 6 6 5 3 3 4 4
3 3 3 3 4 5 6 6 5 3 1 0 0 0 0 0 0 0 0 0 0 0 0 0 0 0 1 1 1 1 2 3 4 5 5 5 5 4 3 2 2 2 2
3 3 3 3 2 3 5 6 6 5 2 1 0 0 0 0 0 0 0 0 0 0 0 0 0 0 0 0 0 0 0 1 2 3 4 4 4 3 2 1 1 1 0
3 3 2 2 2 2 4 5 5 5 3 2 0 0 0 0 0 0 0 0 0 0 0 0 0 0 0 0 0 1 1 2 3 3 3 3 3 2 2 1 0 0 0
2 1 1 1 1 2 3 3 2 3 4 2 0 0 0 0 0 0 0 0 0 0 0 0 0 0 0 0 1 2 2 2 2 2 2 1 1 1 1 0 0 0 0
1 0 0 0 1 1 1 1 0 1 2 1 0 0 0 0 0 0 0 0 0 0 0 0 0 0 0 0 1 2 2 1 1 1 1 0 0 0 0 0 0 0 0
0 0 0 0 0 0 0 0 0 0 0 0 0 0 0 0 0 0 0 0 0 0 0 0 0 0 0 0 0 1 1 0 0 0 0 0 0 0 0 0 0 0 0
0 0 0 0 0 0 0 0 0 0 0 0 0 0 0 0 0 0 0 0 0 0 0 0 0 0 0 0 0 0 0 0 0 0 0 0 0 0 0 0 0 0 0
0 0 0 0 0 1 1 2 1 0 0 0 0 0 0 0 0 0 0 0 0 0 0 0 0 0 0 0 0 0 0 0 0 0 0 0 0 0 0 0 0 0 0
0 0 0 0 1 2 2 3 2 1 0 0 0 0 0 0 0 0 0 0 0 0 0 0 0 0 0 0 0 0 0 0 0 0 0 0 0 0 0 0 0 0 0
Wind_Speed
4 2 2 2 2 1 0 1 1 2 1 1 1 1 1 1 1 1 1 1 1 1 2 1 2 3 3 3 3 2 2 1 1 2 1 1 0 0 1 2 2 3 4
4 3 2 1 1 1 1 1 1 1 1 1 1 1 1 1 1 1 2 2 2 2 2 2 2 2 3 3 3 3 2 1 1 3 2 1 1 0 1 2 2 2 1
4 3 2 1 1 1 1 1 1 1 1 1 1 1 1 1 1 1 2 2 2 2 2 2 2 2 2 2 2 3 3 3 2 2 2 1 1 1 1 2 2 2 3
3 3 3 2 2 2 2 1 2 2 2 2 2 1 1 1 2 2 2 2 2 2 1 1 2 2 2 3 2 2 2 3 2 2 2 2 1 1 1 1 2 2 2
4 3 3 3 3 3 2 2 2 2 2 2 1 1 1 1 2 2 2 1 1 1 2 2 1 1 2 2 3 2 3 2 2 2 2 2 2 1 1 2 2 2 2
3 3 3 3 3 2 2 2 2 2 2 2 2 2 2 2 4 5 3 3 2 1 2 3 2 1 1 2 3 4 3 3 3 2 3 3 3 2 2 2 2 2 2
3 4 4 3 3 3 3 2 2 2 2 2 2 2 1 2 3 3 4 3 2 2 2 3 4 3 2 2 3 4 4 5 4 4 4 4 4 3 3 3 3 3 4
4 3 3 3 3 2 2 2 2 2 1 2 2 1 1 1 2 2 4 3 2 2 2 3 2 3 4 3 3 3 3 3 4 4 3 4 4 4 4 4 4 5 4
3 2 2 2 2 2 2 2 2 1 2 1 1 1 1 1 2 2 3 2 2 2 1 2 2 2 4 4 3 3 4 4 5 5 5 6 7 7 5 3 4 4 4
3 2 2 2 2 2 1 1 2 1 2 2 2 1 1 1 1 2 3 2 2 2 1 1 3 3 4 4 3 4 4 5 5 5 5 4 5 5 6 5 4 4 3
3 2 2 2 1 0 1 1 1 2 2 2 2 2 0 1 1 2 2 2 3 3 2 1 1 2 3 4 4 4 5 6 5 5 4 3 3 3 3 3 4 3 3
2 2 2 1 1 1 1 1 1 2 2 2 2 2 0 1 2 1 2 3 4 3 3 3 2 3 4 5 5 6 7 6 4 4 3 3 3 3 3 3 3 3 3
2 1 1 1 1 1 1 1 2 1 2 2 2 2 1 1 2 2 2 3 4 3 3 5 6 5 5 5 6 7 5 3 3 4 4 3 3 3 2 2 2 2 2
1 1 0 0 1 1 1 1 2 2 2 3 3 3 3 2 3 3 3 3 3 3 3 5 7 6 6 6 5 4 3 3 3 3 3 3 2 2 2 2 2 2 2
1 1 1 1 1 1 1 2 2 2 2 2 3 3 3 3 3 3 3 3 4 4 5 4 4 3 3 2 2 2 2 2 3 3 3 3 3 3 2 2 2 2 2
1 1 1 1 1 1 1 2 5 3 2 2 2 2 2 2 3 5 5 6 6 5 4 4 4 3 3 3 3 2 1 2 2 3 2 2 3 3 2 3 2 2 2
1 1 1 1 1 1 1 0 1 2 2 1 1 1 1 3 5 5 6 7 7 4 3 4 3 3 3 3 3 2 2 2 3 2 2 2 2 2 2 2 2 2 2
2 1 1 1 2 2 1 1 1 1 1 1 1 1 2 3 4 6 6 5 4 2 2 3 3 3 3 3 3 2 2 2 2 3 2 2 2 2 2 2 1 2 2
1 1 1 2 2 1 1 2 1 1 1 1 1 1 2 3 4 5 4 3 4 3 3 3 3 3 3 3 3 3 2 2 3 3 2 2 2 2 2 2 2 2 1
1 0 2 2 2 1 1 2 2 2 2 2 1 1 2 2 2 2 2 2 3 3 3 3 3 4 3 3 3 3 3 3 3 3 3 3 3 2 3 4 3 2 1
1 1 2 2 2 2 2 2 2 2 2 2 1 1 1 2 3 3 2 2 2 3 3 3 4 4 4 3 3 3 4 4 3 3 4 4 4 3 3 2 2 2 2
2 1 1 1 1 2 2 2 2 2 2 3 2 1 1 2 3 3 3 3 3 3 3 3 3 4 4 4 4 4 4 4 4 4 4 4 4 4 4 3 2 2 2
2 1 1 1 1 1 1 2 2 2 2 2 2 2 1 2 3 3 3 4 3 3 3 3 3 3 4 4 4 4 4 5 5 5 4 4 4 4 4 4 3 3 2
2 1 1 1 1 2 2 2 2 2 2 3 2 2 2 2 3 3 3 3 3 3 3 2 3 5 5 4 4 3 4 5 6 5 6 5 5 4 4 4 3 3 2
1 1 1 1 2 2 2 2 2 2 2 2 2 2 2 2 2 2 2 2 3 3 3 3 2 3 5 6 5 4 4 4 4 6 5 4 5 4 3 4 3 3 2
1 2 2 2 1 1 2 2 2 2 2 2 2 1 2 2 2 2 2 2 3 2 3 2 3 4 5 5 6 5 3 4 5 6 5 4 4 4 4 3 4 3 3
Wind_Direction
154 152 139 142 145 141 65 356 5 16 24 10 358 1 27 37 12 349 338 351 330 323 325 4 354 353 347 344 342 329 316 321 297 299 305 334 217 253 218 245 232 206 201
140 134 122 110 120 127 93 19 26 40 33 10 359 350 358 43 34 6 334 336 329 335 340 5 355 355 351 342 339 332 326 315 287 289 295 288 281 274 233 256 269 256 215
128 131 118 101 77 58 61 39 11 24 17 9 3 2 351 18 14 351 328 321 326 335 344 3 353 351 340 337 335 332 325 325 303 288 287 297 291 320 340 288 293 293 279
104 102 96 83 62 51 39 39 35 30 31 14 355 352 2 32 355 337 318 307 326 330 347 352 333 333 339 329 325 335 327 326 315 300 297 297 292 321 321 290 291 291 291
88 86 85 79 69 59 42 39 39 28 27 19 344 348 337 7 350 341 313 308 304 302 322 321 325 30 37 347 336 336 331 324 317 311 302 304 312 336 322 298 298 301 290
86 79 74 63 60 55 39 39 32 27 21 5 339 349 350 351 12 24 8 328 323 321 319 313 305 322 351 325 313 310 308 301 310 305 303 303 303 308 306 300 296 302 297
79 72 69 61 58 43 28 42 30 22 10 348 345 357 23 7 11 10 351 325 335 339 328 320 318 346 11 334 301 285 285 275 262 268 282 286 289 298 302 298 297 292 283
80 76 78 68 60 46 39 32 15 5 350 344 330 328 330 350 14 354 328 296 304 314 317 316 320 332 338 335 305 305 300 295 273 253 256 266 279 287 284 274 275 278 273
86 81 76 65 55 50 38 19 354 344 330 309 314 349 323 331 358 347 313 281 281 287 304 335 324 332 346 339 314 305 307 305 297 292 270 261 264 273 271 279 276 276 280
77 68 63 60 43 33 35 3 350 328 311 313 330 344 341 8 21 359 323 295 304 310 325 348 18 2 346 344 323 308 302 304 308 305 299 279 267 266 259 243 255 267 278
74 66 56 53 35 83 60 2 326 315 321 316 306 301 321 88 71 23 349 324 326 322 322 316 329 337 321 304 296 290 290 299 294 285 289 284 275 267 257 246 236 235 255
79 68 48 13 325 37 15 317 296 290 293 300 300 296 342 107 80 38 341 316 320 321 319 324 325 315 305 294 286 290 297 302 293 290 289 285 282 281 279 283 269 232 218
70 55 26 356 355 17 338 321 306 304 312 320 323 325 346 38 71 45 346 324 332 320 327 332 321 302 293 285 276 286 291 291 296 294 293 293 290 292 294 296 301 280 238
80 69 5 302 326 14 347 338 347 348 339 340 342 343 356 10 20 6 342 328 317 305 310 306 290 274 271 278 285 280 269 285 292 291 297 300 306 309 301 292 283 277 278
28 0 305 311 321 330 349 359 352 25 25 354 349 348 343 347 357 350 339 332 330 335 324 299 293 292 279 280 279 277 286 308 304 300 303 318 321 314 305 298 294 292 290
349 326 318 326 347 328 335 23 32 30 54 65 25 359 3 3 336 340 337 329 321 323 318 297 298 302 310 311 307 300 295 307 305 310 311 317 316 311 315 318 312 304 304
285 281 290 303 300 294 297 312 0 19 24 5 327 351 335 311 315 315 317 320 314 312 292 290 299 312 313 313 318 326 330 333 325 315 316 320 316 318 326 321 320 329 329
267 257 290 293 286 286 297 300 292 308 333 337 304 254 266 277 290 298 305 319 314 292 284 304 319 318 313 316 325 329 330 327 323 321 329 332 330 329 326 316 320 333 330
282 358 315 300 300 313 314 302 305 319 312 295 320 308 272 276 282 293 311 314 318 332 336 337 331 325 324 327 325 322 321 313 312 315 323 328 334 336 329 322 328 339 346
184 265 294 297 293 289 308 325 333 327 315 319 329 349 352 329 326 327 321 316 324 333 335 335 328 322 328 333 330 329 328 326 325 330 336 335 333 339 340 338 343 351 353
244 193 241 286 310 346 357 349 344 334 329 325 350 40 10 318 322 322 321 319 319 317 325 330 332 336 340 340 337 336 343 346 348 347 345 339 340 339 330 333 339 342 1
316 321 283 324 354 6 346 328 322 323 320 330 4 26 277 308 331 340 334 328 325 328 345 348 348 349 344 344 346 352 357 356 347 344 340 331 328 331 333 336 345 344 343
290 301 13 29 336 331 303 316 324 328 340 342 345 359 346 324 328 338 338 338 344 342 345 354 354 347 353 354 3 14 4 352 337 333 334 328 326 331 332 329 335 342 344
294 324 355 346 311 307 314 318 322 337 348 339 341 347 333 320 329 338 338 338 345 344 349 0 2 354 0 5 6 20 20 1 340 335 335 323 315 317 327 330 326 334 338
301 322 315 301 298 312 322 322 327 340 339 336 341 341 322 319 322 331 339 344 345 348 357 1 353 353 355 3 9 23 25 10 353 339 324 315 312 316 321 317 317 326 337
287 294 301 307 320 324 306 302 317 334 330 328 336 335 320 322 337 348 351 348 338 345 344 348 356 5 5 14 22 28 26 3 346 335 317 305 308 312 316 311 318 323 327